H1 CPF 2 NER 2025 10 15 9 288 01 glonass138 H2 1805301 9138 43508 2025 10 15 0 0 0 2025 10 18 23 45 0 900 1 1 0 0 0 1 H9 10 0 60963 0.00000 0 6568498.631 -9242876.505 -22841441.313 10 0 60963 900.00000 0 8125489.724 -6863305.983 -23179454.144 10 0 60963 1800.00000 0 9864738.137 -4596372.781 -23067080.182 10 0 60963 2700.00000 0 11741491.292 -2497467.776 -22506618.116 10 0 60963 3600.00000 0 13702242.292 -612956.227 -21509064.363 10 0 60963 4500.00000 0 15686838.921 1021532.962 -20093891.587 10 0 60963 5400.00000 0 17630886.393 2382357.749 -18288664.069 10 0 60963 6300.00000 0 19468343.818 3458602.935 -16128497.667 10 0 60963 7200.00000 0 21134206.275 4252280.611 -13655374.982 10 0 60963 8100.00000 0 22567160.898 4777984.591 -10917329.002 10 0 60963 9000.00000 0 23712106.395 5062015.070 -7967510.939 10 0 60963 9900.00000 0 24522431.078 5141011.781 -4863160.169 10 0 60963 10800.00000 0 24961954.495 5060154.371 -1664496.098 10 0 60963 11700.00000 0 25006451.757 4871006.734 1566446.774 10 0 60963 12600.00000 0 24644696.923 4629096.822 4767018.115 10 0 60963 13500.00000 0 23878981.926 4391334.434 7875162.292 10 0 60963 14400.00000 0 22725089.270 4213376.179 10830616.897 10 0 60963 15300.00000 0 21211719.478 4147048.928 13576076.255 10 0 60963 16200.00000 0 19379396.917 4237940.535 16058297.657 10 0 60963 17100.00000 0 17278899.230 4523259.544 18229129.309 10 0 60963 18000.00000 0 14969275.306 5030054.352 20046440.458 10 0 60963 18900.00000 0 12515533.683 5773867.250 21474936.155 10 0 60963 19800.00000 0 9986096.801 6757880.712 22486841.310 10 0 60963 20700.00000 0 7450126.158 7972592.820 23062441.067 10 0 60963 21600.00000 0 4974828.692 9396036.762 23190467.237 10 0 60963 22500.00000 0 2622855.453 10994536.768 22868323.183 10 0 60963 23400.00000 0 449899.968 12723970.494 22102142.509 10 0 60963 24300.00000 0 -1497404.542 14531486.725 20906679.794 10 0 60963 25200.00000 0 -3183202.118 16357608.105 19305034.691 10 0 60963 26100.00000 0 -4583674.014 18138632.206 17328213.763 10 0 60963 27000.00000 0 -5687789.422 19809231.402 15014537.526 10 0 60963 27900.00000 0 -6497515.839 21305143.151 12408903.238 10 0 60963 28800.00000 0 -7027480.551 22565837.944 9561916.963 10 0 60963 29700.00000 0 -7304097.837 23537052.569 6528911.267 10 0 60963 30600.00000 0 -7364199.164 24173081.522 3368867.462 10 0 60963 31500.00000 0 -7253224.828 24438729.199 143263.598 10 0 60963 32400.00000 0 -7023054.385 24310839.600 -3085128.802 10 0 60963 33300.00000 0 -6729568.704 23779338.050 -6253475.009 10 0 60963 34200.00000 0 -6430048.142 22847740.138 -9300109.298 10 0 60963 35100.00000 0 -6180518.359 21533105.743 -12165744.024 10 0 60963 36000.00000 0 -6033157.518 19865439.701 -14794630.974 10 0 60963 36900.00000 0 -6033875.863 17886564.200 -17135651.520 10 0 60963 37800.00000 0 -6220171.162 15648510.432 -19143313.792 10 0 60963 38700.00000 0 -6619351.439 13211497.221 -20778637.243 10 0 60963 39600.00000 0 -7247200.642 10641581.672 -22009907.496 10 0 60963 40500.00000 0 -8107143.807 8008080.365 -22813287.211 10 0 60963 41400.00000 0 -9189947.035 5380868.822 -23173271.790 10 0 60963 42300.00000 0 -10473964.896 2827671.752 -23082981.830 10 0 60963 43200.00000 0 -11925924.823 411456.429 -22544287.526 10 0 60963 44100.00000 0 -13502215.536 -1811963.179 -21567763.415 10 0 60963 45000.00000 0 -15150625.502 -3796012.958 -20172474.984 10 0 60963 45900.00000 0 -16812458.674 -5505050.577 -18385601.839 10 0 60963 46800.00000 0 -18424939.115 -6915594.035 -16241905.014 10 0 60963 47700.00000 0 -19923804.057 -8017037.490 -13783048.911 10 0 60963 48600.00000 0 -21245977.146 -8811826.384 -11056791.027 10 0 60963 49500.00000 0 -22332210.261 -9315086.424 -8116055.039 10 0 60963 50400.00000 0 -23129583.553 -9553723.636 -5017905.089 10 0 60963 51300.00000 0 -23593759.206 -9565034.761 -1822440.999 10 0 60963 52200.00000 0 -23690894.706 -9394887.591 1408364.397 10 0 60963 53100.00000 0 -23399135.466 -9095548.736 4611863.332 10 0 60963 54000.00000 0 -22709624.261 -8723250.948 7725943.593 10 0 60963 54900.00000 0 -21626984.991 -8335602.924 10690228.119 10 0 60963 55800.00000 0 -20169260.185 -7988950.970 13447240.677 10 0 60963 56700.00000 0 -18367304.376 -7735803.823 15943515.345 10 0 60963 57600.00000 0 -16263658.020 -7622429.184 18130628.695 10 0 60963 58500.00000 0 -13910948.159 -7686723.241 19966135.099 10 0 60963 59400.00000 0 -11369881.561 -7956443.072 21414387.496 10 0 60963 60300.00000 0 -8706912.834 -8447876.640 22447228.193 10 0 60963 61200.00000 0 -5991683.430 -9165006.917 23044536.584 10 0 60963 62100.00000 0 -3294336.866 -10099206.148 23194623.384 10 0 60963 63000.00000 0 -682820.608 -11229474.273 22894463.661 10 0 60963 63900.00000 0 1779714.244 -12523212.865 22149763.806 10 0 60963 64800.00000 0 4037308.255 -13937503.642 20974860.580 10 0 60963 65700.00000 0 6043285.032 -15420839.431 19392453.362 10 0 60963 66600.00000 0 7761952.084 -16915236.317 17433173.812 10 0 60963 67500.00000 0 9169840.604 -18358639.436 15135000.292 10 0 60963 68400.00000 0 10256432.715 -19687522.118 12542527.400 10 0 60963 69300.00000 0 11024345.935 -20839569.406 9706104.037 10 0 60963 70200.00000 0 11488967.467 -21756332.903 6680856.240 10 0 60963 71100.00000 0 11677554.111 -22385744.616 3525613.565 10 0 60963 72000.00000 0 11627836.312 -22684382.922 301760.145 10 0 60963 72900.00000 0 11386186.055 -22619394.008 -2927966.660 10 0 60963 73800.00000 0 11005427.036 -22169986.542 -6100705.838 10 0 60963 74700.00000 0 10542380.914 -21328435.342 -9154705.458 10 0 60963 75600.00000 0 10055254.771 -20100550.759 -12030533.490 10 0 60963 76500.00000 0 9600981.657 -18505593.208 -14672242.088 10 0 60963 77400.00000 0 9232628.013 -16575635.993 -17028461.762 10 0 60963 78300.00000 0 8996978.640 -14354402.979 -19053403.581 10 0 60963 79200.00000 0 8932402.103 -11895629.872 -20707749.668 10 0 60963 80100.00000 0 9067087.199 -9261017.889 -21959414.731 10 0 60963 81000.00000 0 9417725.094 -6517865.528 -22784164.251 10 0 60963 81900.00000 0 9988692.627 -3736477.337 -23166077.972 10 0 60963 82800.00000 0 10771770.931 -987457.581 -23097850.469 10 0 60963 83700.00000 0 11746410.893 1660998.902 -22580923.831 10 0 60963 84600.00000 0 12880533.933 4145706.671 -21625450.665 10 0 60963 85500.00000 0 14131834.217 6410873.347 -20250088.841 10 0 60964 0.00000 0 15449527.291 8410168.977 -18481632.628 10 0 60964 900.00000 0 16776472.441 10108397.589 -16354486.703 10 0 60964 1800.00000 0 18051577.968 11482700.420 -13909995.815 10 0 60964 2700.00000 0 19212390.972 12523246.027 -11195639.990 10 0 60964 3600.00000 0 20197761.402 13233377.579 -8264113.024 10 0 60964 4500.00000 0 20950469.482 13629213.997 -5172301.154 10 0 60964 5400.00000 0 21419706.291 13738723.064 -1980181.663 10 0 60964 6300.00000 0 21563303.499 13600306.747 1250337.415 10 0 60964 7200.00000 0 21349618.676 13260959.244 4456614.108 10 0 60964 8100.00000 0 20758996.957 12774076.037 7576482.833 10 0 60964 9000.00000 0 19784747.469 12197006.688 10549454.983 10 0 60964 9900.00000 0 18433593.152 11588454.704 13317886.698 10 0 60964 10800.00000 0 16725574.524 11005834.057 15828091.546 10 0 60964 11700.00000 0 14693410.541 10502693.623 18031376.903 10 0 60964 12600.00000 0 12381342.324 10126317.853 19884984.423 10 0 60964 13500.00000 0 9843506.775 9915604.566 21352916.799 10 0 60964 14400.00000 0 7141906.597 9899309.131 22406635.268 10 0 60964 15300.00000 0 4344059.854 10094729.090 23025614.656 10 0 60964 16200.00000 0 1520425.431 10506884.911 23197745.385 10 0 60964 17100.00000 0 -1258289.954 11128232.012 22919574.588 10 0 60964 18000.00000 0 -3923832.491 11938917.118 22196381.359 10 0 60964 18900.00000 0 -6412998.609 12907569.298 21042084.073 10 0 60964 19800.00000 0 -8670021.767 13992593.756 19478980.792 10 0 60964 20700.00000 0 -10648649.969 15143915.180 17537326.802 10 0 60964 21600.00000 0 -12313827.857 16305098.471 15254756.454 10 0 60964 22500.00000 0 -13642913.464 17415758.403 12675559.532 10 0 60964 23400.00000 0 -14626378.869 18414157.173 9849825.416 10 0 60964 24300.00000 0 -15267965.615 19239880.380 6832471.107 10 0 60964 25200.00000 0 -15584288.622 19836478.136 3682171.824 10 0 60964 26100.00000 0 -15603905.668 20153959.028 460215.162 10 0 60964 27000.00000 0 -15365892.312 20151030.508 -2770698.334 10 0 60964 27900.00000 0 -14917983.241 19796989.825 -5947684.012 10 0 60964 28800.00000 0 -14314359.661 19073184.316 -9008906.354 10 0 60964 29700.00000 0 -13613177.454 17973978.208 -11894791.510 10 0 60964 30600.00000 0 -12873941.914 16507184.099 -14549194.445 10 0 60964 31500.00000 0 -12154841.274 14693940.137 -16920497.096 10 0 60964 32400.00000 0 -11510152.775 12568037.537 -18962615.568 10 0 60964 33300.00000 0 -10987831.651 10174726.347 -20635896.519 10 0 60964 34200.00000 0 -10627385.256 7569049.388 -21907885.361 10 0 60964 35100.00000 0 -10458122.139 4813774.020 -22753951.746 10 0 60964 36000.00000 0 -10497849.656 1977008.044 -23157760.825 10 0 60964 36900.00000 0 -10752074.525 -870401.008 -23111581.897 10 0 60964 37800.00000 0 -11213739.339 -3657575.237 -22616429.334 10 0 60964 38700.00000 0 -11863505.449 -6316312.286 -21682033.831 10 0 60964 39600.00000 0 -12670569.662 -8783676.093 -20326645.238 10 0 60964 40500.00000 0 -13593979.850 -11004365.908 -18576671.337 10 0 60964 41400.00000 0 -14584393.794 -12932766.415 -16466159.896 10 0 60964 42300.00000 0 -15586207.067 -14534595.121 -14036134.190 10 0 60964 43200.00000 0 -16539960.419 -15788080.055 -11333794.949 10 0 60964 44100.00000 0 -17384925.480 -16684620.347 -8411604.034 10 0 60964 45000.00000 0 -18061760.137 -17228903.716 -5326267.534 10 0 60964 45900.00000 0 -18515122.035 -17438477.530 -2137637.806 10 0 60964 46800.00000 0 -18696130.366 -17342792.787 1092444.431 10 0 60964 47700.00000 0 -18564572.419 -16981762.264 4301345.637 10 0 60964 48600.00000 0 -18090762.023 -16403894.319 7426849.604 10 0 60964 49500.00000 0 -17256971.522 -15664081.387 10408359.003 10 0 60964 50400.00000 0 -16058376.691 -14821136.547 13188065.211 10 0 60964 51300.00000 0 -14503474.285 -13935181.893 15712064.104 10 0 60964 52200.00000 0 -12613953.845 -13064998.484 17931396.576 10 0 60964 53100.00000 0 -10424028.007 -12265449.093 19802994.055 10 0 60964 54000.00000 0 -7979247.969 -11585081.855 21290511.189 10 0 60964 54900.00000 0 -5334852.065 -11064015.232 22365029.997 10 0 60964 55800.00000 0 -2553714.668 -10732193.040 23005622.188 10 0 60964 56700.00000 0 296020.823 -10608082.824 23199758.926 10 0 60964 57600.00000 0 3143528.100 -10697872.498 22943560.041 10 0 60964 58500.00000 0 5917997.065 -10995199.501 22241877.561 10 0 60964 59400.00000 0 8551335.083 -11481424.518 21108211.350 10 0 60964 60300.00000 0 10980759.044 -12126439.189 19564457.683 10 0 60964 61200.00000 0 13151171.116 -12889974.747 17640494.661 10 0 60964 62100.00000 0 15017219.684 -13723357.429 15373611.475 10 0 60964 63000.00000 0 16544959.735 -14571637.462 12807791.595 10 0 60964 63900.00000 0 17713043.383 -15376002.277 9992863.005 10 0 60964 64800.00000 0 18513390.697 -16076372.264 6983531.439 10 0 60964 65700.00000 0 18951312.781 -16614069.062 3838315.205 10 0 60964 66600.00000 0 19045082.092 -16934442.979 618402.508 10 0 60964 67500.00000 0 18824968.524 -16989347.378 -2613545.967 10 0 60964 68400.00000 0 18331782.503 -16739354.151 -5794625.086 10 0 60964 69300.00000 0 17614987.451 -16155615.234 -8862918.905 10 0 60964 70200.00000 0 16730462.417 -15221290.093 -11758714.844 10 0 60964 71100.00000 0 15738010.508 -13932477.692 -14425673.645 10 0 60964 72000.00000 0 14698719.583 -12298612.545 -16811931.457 10 0 60964 72900.00000 0 13672287.681 -10342307.372 -18871111.975 10 0 60964 73800.00000 0 12714426.865 -8098648.372 -20563228.681 10 0 60964 74700.00000 0 11874455.497 -5613972.296 -21855459.659 10 0 60964 75600.00000 0 11193180.492 -2944176.301 -22722780.336 10 0 60964 76500.00000 0 10701158.514 -152630.987 -23148442.468 10 0 60964 77400.00000 0 10417408.672 2692216.482 -23124290.856 10 0 60964 78300.00000 0 10348630.039 5519449.666 -22650912.496 10 0 60964 79200.00000 0 10488955.890 8258392.540 -21737616.089 10 0 60964 80100.00000 0 10820253.961 10841309.565 -20402242.982 10 0 60964 81000.00000 0 11312959.128 13205984.805 -18670813.763 10 0 60964 81900.00000 0 11927402.653 15298073.981 -16577017.707 10 0 60964 82800.00000 0 12615581.436 17073132.836 -14161555.130 10 0 60964 83700.00000 0 13323292.388 18498238.812 -11471345.467 10 0 60964 84600.00000 0 13992541.801 19553139.888 -8558616.294 10 0 60964 85500.00000 0 14564128.176 20230884.112 -5479890.888 10 0 60965 0.00000 0 14980289.643 20537904.938 -2294894.043 10 0 60965 900.00000 0 15187304.717 20493560.214 934604.528 10 0 60965 1800.00000 0 15137936.264 20129144.925 4145982.639 10 0 60965 2700.00000 0 14793616.468 19486420.582 7276976.661 10 0 60965 3600.00000 0 14126279.993 18615723.158 10266883.649 10 0 60965 4500.00000 0 13119768.100 17573729.653 13057733.154 10 0 60965 5400.00000 0 11770744.051 16420977.211 15595406.083 10 0 60965 6300.00000 0 10089080.505 15219238.924 17830679.309 10 0 60965 7200.00000 0 8097701.554 14028866.251 19720176.228 10 0 60965 8100.00000 0 5831884.640 12906209.237 21227205.327 10 0 60965 9000.00000 0 3338049.914 11901222.369 22322470.969 10 0 60965 9900.00000 0 672085.855 11055356.086 22984642.940 10 0 60965 10800.00000 0 -2102720.908 10399822.103 23200773.933 10 0 60965 11700.00000 0 -4918067.197 9954305.135 22966556.819 10 0 60965 12600.00000 0 -7703228.863 9726175.155 22286416.418 10 0 60965 13500.00000 0 -10387763.920 9710233.501 21173433.427 10 0 60965 14400.00000 0 -12904211.965 9889003.958 19649101.165 10 0 60965 15300.00000 0 -15190678.418 10233557.167 17742918.899 10 0 60965 16200.00000 0 -17193196.451 10704834.271 15491828.587 10 0 60965 17100.00000 0 -18867768.376 11255414.604 12939504.973 10 0 60965 18000.00000 0 -20182001.148 11831653.210 10135512.000 10 0 60965 18900.00000 0 -21116267.439 12376098.025 7134341.360 10 0 60965 19800.00000 0 -21664343.441 12830084.338 3994351.635 10 0 60965 20700.00000 0 -21833496.522 13136396.111 776628.842 10 0 60965 21600.00000 0 -21644019.143 13241880.633 -2456208.934 10 0 60965 22500.00000 0 -21128229.001 13099904.576 -5641238.732 10 0 60965 23400.00000 0 -20328978.165 12672546.098 -8716466.764 10 0 60965 24300.00000 0 -19297734.930 11932428.849 -11622044.192 10 0 60965 25200.00000 0 -18092320.339 10864118.942 -14301439.866 10 0 60965 26100.00000 0 -16774395.982 9465024.680 -16702546.299 10 0 60965 27000.00000 0 -15406810.036 7745760.111 -18778696.699 10 0 60965 27900.00000 0 -14050914.272 5729956.263 -20489573.008 10 0 60965 28800.00000 0 -12763965.580 3453527.441 -21801987.312 10 0 60965 29700.00000 0 -11596721.568 963422.903 -22690521.805 10 0 60965 30600.00000 0 -10591331.084 -1684084.195 -23138015.499 10 0 60965 31500.00000 0 -9779607.738 -4425499.380 -23135888.997 10 0 60965 32400.00000 0 -9181757.978 -7192513.635 -22684301.881 10 0 60965 33300.00000 0 -8805615.915 -9914614.573 -21792140.464 10 0 60965 34200.00000 0 -8646415.721 -12521793.880 -20476836.863 10 0 60965 35100.00000 0 -8687109.795 -14947239.164 -18764023.431 10 0 60965 36000.00000 0 -8899218.057 -17129899.151 -16687029.625 10 0 60965 36900.00000 0 -9244171.567 -19016816.494 -14286231.231 10 0 60965 37800.00000 0 -9675093.062 -20565132.254 -11608264.629 10 0 60965 38700.00000 0 -10138938.794 -21743679.739 -8705121.221 10 0 60965 39600.00000 0 -10578911.018 -22534102.428 -5633139.481 10 0 60965 40500.00000 0 -10937039.195 -22931450.551 -2451914.003 10 0 60965 41400.00000 0 -11156820.954 -22944232.485 776857.487 10 0 60965 42300.00000 0 -11185811.375 -22593919.865 3990566.928 10 0 60965 43200.00000 0 -10978051.339 -21913927.971 7126905.563 10 0 60965 44100.00000 0 -10496232.448 -20948114.782 10125067.221 10 0 60965 45000.00000 0 -9713506.994 -19748862.041 12926922.092 10 0 60965 45900.00000 0 -8614866.336 -18374819.005 15478138.602 10 0 60965 46800.00000 0 -7198028.978 -16888403.389 17729232.060 10 0 60965 47700.00000 0 -5473800.049 -15353164.035 19636520.173 10 0 60965 48600.00000 0 -3465885.813 -13831115.384 21162967.418 10 0 60965 49500.00000 0 -1210169.393 -12380154.839 22278902.387 10 0 60965 50400.00000 0 1246523.776 -11051670.640 22962594.522 10 0 60965 51300.00000 0 3848121.167 -9888439.825 23200679.272 10 0 60965 52200.00000 0 6531390.336 -8922903.846 22988423.406 10 0 60965 53100.00000 0 9228332.955 -8175893.799 22329825.031 10 0 60965 54000.00000 0 11868787.728 -7655858.541 21237545.808 10 0 60965 54900.00000 0 14383135.222 -7358628.166 19732675.880 10 0 60965 55800.00000 0 16704992.986 -7267722.973 17844335.104 10 0 60965 56700.00000 0 18773789.289 -7355195.235 15609117.271 10 0 60965 57600.00000 0 20537108.396 -7582968.642 13070387.091 10 0 60965 58500.00000 0 21952709.301 -7904619.121 10277442.764 10 0 60965 59400.00000 0 22990133.237 -8267521.873 7284559.844 10 0 60965 60300.00000 0 23631832.161 -8615273.586 4149934.710 10 0 60965 61200.00000 0 23873770.523 -8890286.769 934548.377 10 0 60965 62100.00000 0 23725474.768 -9036445.465 -2299026.733 10 0 60965 63000.00000 0 23209528.509 -9001708.685 -5487853.049 10 0 60965 63900.00000 0 22360534.881 -8740549.931 -8569862.190 10 0 60965 64800.00000 0 21223590.383 -8216128.077 -11485072.239 10 0 60965 65700.00000 0 19852335.282 -7402096.293 -14176763.183 10 0 60965 66600.00000 0 18306663.699 -6283971.238 -16592586.706 10 0 60965 67500.00000 0 16650190.773 -4860003.579 -18685588.088 10 0 60965 68400.00000 0 14947584.360 -3141512.190 -20415120.017 10 0 60965 69300.00000 0 13261874.112 -1152667.257 -21747630.570 10 0 60965 70200.00000 0 11651851.309 1070269.154 -22657310.374 10 0 60965 71100.00000 0 10169668.443 3480213.684 -23126587.014 10 0 60965 72000.00000 0 8858738.779 6020990.593 -23146457.837 10 0 60965 72900.00000 0 7752022.962 8629447.159 -22716655.545 10 0 60965 73800.00000 0 6870773.275 11237867.734 -21845644.193 10 0 60965 74700.00000 0 6223786.660 13776586.347 -20550446.369 10 0 60965 75600.00000 0 5807196.218 16176689.648 -18856305.478 10 0 60965 76500.00000 0 5604808.313 18372698.408 -16796190.026 10 0 60965 77400.00000 0 5588969.622 20305116.726 -14410149.728 10 0 60965 78300.00000 0 5721926.388 21922743.650 -11744535.979 10 0 60965 79200.00000 0 5957617.589 23184651.870 -8851101.685 10 0 60965 80100.00000 0 6243825.720 24061751.873 -5785997.864 10 0 60965 81000.00000 0 6524593.972 24537877.260 -2608686.248 10 0 60965 81900.00000 0 6742807.509 24610346.790 619211.164 10 0 60965 82800.00000 0 6842829.742 24289980.455 3835103.436 10 0 60965 83700.00000 0 6773082.229 23600569.657 6976640.006 10 0 60965 84600.00000 0 6488459.237 22577824.166 9982914.722 10 0 60965 85500.00000 0 5952474.951 21267840.342 12795641.521 10 0 60966 0.00000 0 5139052.600 19725155.024 15360279.035 10 0 60966 900.00000 0 4033879.109 18010465.611 17627084.121 10 0 60966 1800.00000 0 2635268.666 16188113.586 19552070.926 10 0 60966 2700.00000 0 954496.359 14323433.504 21097861.981 10 0 60966 3600.00000 0 -984412.513 12480079.701 22234411.825 10 0 60966 4500.00000 0 -3145430.689 10717440.974 22939590.883 10 0 60966 5400.00000 0 -5481785.320 9088250.698 23199618.266 10 0 60966 6300.00000 0 -7937671.976 7636491.560 23009335.065 10 0 60966 7200.00000 0 -10450356.770 6395681.957 22372312.570 10 0 60966 8100.00000 0 -12952580.754 5387615.334 21300792.749 10 0 60966 9000.00000 0 -15375167.981 4621604.954 19815461.349 10 0 60966 9900.00000 0 -17649729.661 4094265.686 17945057.044 10 0 60966 10800.00000 0 -19711352.441 3789841.975 15725823.193 10 0 60966 11700.00000 0 -21501158.956 3681068.237 13200811.787 10 0 60966 12600.00000 0 -22968633.553 3730525.461 10419052.304 10 0 60966 13500.00000 0 -24073615.531 3892436.682 7434600.981 10 0 60966 14400.00000 0 -24787875.810 4114825.131 4305488.743 10 0 60966 15300.00000 0 -25096210.215 4341943.207 1092588.385 10 0 60966 16200.00000 0 -24997002.876 4516868.571 -2141576.471 10 0 60966 17100.00000 0 -24502235.680 4584156.256 -5334056.640 10 0 60966 18000.00000 0 -23636943.242 4492433.095 -8422711.980 10 0 60966 18900.00000 0 -22438136.555 4196823.135 -11347430.144 10 0 60966 19800.00000 0 -20953241.083 3661099.872 -14051304.695 10 0 60966 20700.00000 0 -19238115.802 2859472.888 -16481748.670 10 0 60966 21600.00000 0 -17354737.291 1777932.218 -18591521.288 10 0 60966 22500.00000 0 -15368647.069 415092.682 -20339647.481 10 0 60966 23400.00000 0 -13346269.993 -1217498.149 -21692212.387 10 0 60966 24300.00000 0 -11352216.645 -3095601.901 -22623015.686 10 0 60966 25200.00000 0 -9446682.713 -5183071.587 -23114073.696 10 0 60966 26100.00000 0 -7683053.917 -7433141.572 -23155960.225 10 0 60966 27000.00000 0 -6105815.872 -9790171.713 -22747980.405 10 0 60966 27900.00000 0 -4748855.090 -12191773.140 -21898174.985 10 0 60966 28800.00000 0 -3634220.719 -14571227.328 -20623155.665 10 0 60966 29700.00000 0 -2771397.080 -16860098.077 -18947775.284 10 0 60966 30600.00000 0 -2157115.648 -18990928.067 -16904639.583 10 0 60966 31500.00000 0 -1775712.563 -20899908.201 -14533470.253 10 0 60966 32400.00000 0 -1600015.007 -22529409.129 -11880331.655 10 0 60966 33300.00000 0 -1592717.724 -23830270.132 -8996736.130 10 0 60966 34200.00000 0 -1708190.602 -24763750.517 -5938645.162 10 0 60966 35100.00000 0 -1894640.264 -25303062.786 -2765385.578 10 0 60966 36000.00000 0 -2096533.907 -25434424.183 461498.356 10 0 60966 36900.00000 0 -2257182.722 -25157583.228 3679434.831 10 0 60966 37800.00000 0 -2321375.623 -24485799.746 6826033.458 10 0 60966 38700.00000 0 -2237951.992 -23445279.570 9840290.114 10 0 60966 39600.00000 0 -1962204.728 -22074087.791 12663764.490 10 0 60966 40500.00000 0 -1458012.081 -20420586.063 15241707.868 10 0 60966 41400.00000 0 -699608.067 -18541459.094 17524119.697 10 0 60966 42300.00000 0 327083.653 -16499412.500 19466712.907 10 0 60966 43200.00000 0 1623609.327 -14360637.590 21031769.793 10 0 60966 44100.00000 0 3178674.601 -12192148.228 22188872.330 10 0 60966 45000.00000 0 4968378.407 -10059100.098 22915493.162 10 0 60966 45900.00000 0 6956983.170 -8022203.350 23197435.988 10 0 60966 46800.00000 0 9098191.042 -6135335.676 23029116.848 10 0 60966 47700.00000 0 11336874.786 -4443454.707 22413680.528 10 0 60966 48600.00000 0 13611192.907 -2980896.186 21362949.302 10 0 60966 49500.00000 0 15855002.448 -1770128.571 19897204.214 10 0 60966 50400.00000 0 18000470.075 -821015.847 18044802.157 10 0 60966 51300.00000 0 19980773.336 -130619.179 15841635.150 10 0 60966 52200.00000 0 21732779.743 316454.387 13330441.254 10 0 60966 53100.00000 0 23199591.588 547171.001 10559979.678 10 0 60966 54000.00000 0 24332849.588 598694.201 7584085.467 10 0 60966 54900.00000 0 25094698.095 516572.687 4460621.886 10 0 60966 55800.00000 0 25459328.559 352568.848 1250350.996 10 0 60966 56700.00000 0 25414035.523 162220.780 -1984255.126 10 0 60966 57600.00000 0 24959740.015 2242.141 -5180238.595 10 0 60966 58500.00000 0 24110957.800 -72128.745 -8275390.474 10 0 60966 59400.00000 0 22895213.613 -9716.776 -11209470.911 10 0 60966 60300.00000 0 21351926.139 234176.067 -13925389.832 10 0 60966 61200.00000 0 19530810.990 695634.441 -16370324.228 10 0 60966 62100.00000 0 17489869.408 1400362.492 -18496749.622 10 0 60966 63000.00000 0 15293047.783 2362361.491 -20263365.327 10 0 60966 63900.00000 0 13007666.787 3583108.802 -21635895.439 10 0 60966 64800.00000 0 10701728.235 5051273.346 -22587750.349 10 0 60966 65700.00000 0 8441212.500 6742979.926 -23100536.509 10 0 60966 66600.00000 0 6287479.254 8622611.598 -23164405.293 10 0 60966 67500.00000 0 4294879.438 10644116.695 -22778235.045 10 0 60966 68400.00000 0 2508677.114 12752766.041 -21949643.601 10 0 60966 69300.00000 0 963366.568 14887287.134 -20694831.769 10 0 60966 70200.00000 0 -318546.772 16982286.470 -19038261.382 10 0 60966 71100.00000 0 -1327252.554 18970859.278 -17012174.540 10 0 60966 72000.00000 0 -2065801.210 20787278.142 -14655963.595 10 0 60966 72900.00000 0 -2549724.167 22369648.789 -12015404.145 10 0 60966 73800.00000 0 -2806126.199 23662422.678 -9141765.842 10 0 60966 74700.00000 0 -2872289.592 24618661.896 -6090818.166 10 0 60966 75600.00000 0 -2793850.060 25201962.256 -2921750.267 10 0 60966 76500.00000 0 -2622622.203 25387954.614 303974.333 10 0 60966 77400.00000 0 -2414166.817 25165321.973 3523806.109 10 0 60966 78300.00000 0 -2225203.116 24536290.137 6675318.096 10 0 60966 79200.00000 0 -2110975.302 23516571.541 9697411.440 10 0 60966 80100.00000 0 -2122684.710 22134764.630 12531494.754 10 0 60966 81000.00000 0 -2305095.995 20431233.791 15122614.786 10 0 60966 81900.00000 0 -2694418.424 18456516.292 17420516.882 10 0 60966 82800.00000 0 -3316551.847 16269322.287 19380615.137 10 0 60966 83700.00000 0 -4185771.727 13934210.676 20964853.945 10 0 60966 84600.00000 0 -5303909.304 11519036.876 22142444.753 10 0 60966 85500.00000 0 -6660062.481 9092277.963 22890464.077 99